Vertical_Velocity
-2 -2 -3 -2 -0 -1 0 -2 -1 -3 -2 1 1 1 -0 2 0 -1 1 2 -1 0 1 -0 0 -1 2 3 -2 2 2 1 1 1 3 -1 1 -1 -4 -2 -1 -2 -0 1 -2 -1 -0
-2 -1 -2 -3 -2 -1 -2 -2 -0 -2 -0 -1 1 1 2 2 3 2 2 -1 -0 -1 -1 -1 2 -2 1 7 2 -0 2 2 -2 3 1 1 -0 1 -3 -2 -4 2 1 0 -3 -4 -1
-2 -3 -3 -5 -5 -2 -3 -1 1 1 0 0 1 0 1 1 1 2 3 -1 -0 3 -2 -0 -1 -1 2 -12 -1 6 4 0 -1 2 0 2 1 -1 7 -1 -3 -0 2 -0 -1 -4 -2
-0 -3 -2 0 -1 1 -1 -1 2 1 1 1 0 2 -1 1 -0 4 -0 -1 3 2 -3 -1 0 -2 17 -14 4 4 0 0 -1 1 -2 4 0 -1 2 2 -2 -2 -1 -2 -3 2 1
-1 -1 -2 -2 -2 0 2 2 1 2 2 3 2 2 0 -1 3 3 -1 -0 3 3 0 0 2 1 5 1 3 1 1 -1 -2 -1 0 1 -0 2 1 2 0 -4 -2 3 -0 -1 3
-2 -1 -3 -2 2 2 -1 0 -2 -2 -1 0 1 2 1 1 1 3 1 0 3 3 1 2 2 2 6 2 2 9 -4 -0 0 -2 1 0 -2 0 2 -2 -0 2 5 3 1 7 6
-4 -4 -3 -0 1 -1 1 1 -1 -1 -2 -2 -0 1 3 1 2 3 4 2 3 -0 4 1 6 3 5 -1 2 5 -4 -1 -0 -2 3 -1 -5 9 17 2 -1 4 -2 -2 1 2 2
-2 -3 -3 -3 -3 -2 -0 -1 2 -0 2 1 -1 -1 0 -1 -0 4 3 1 -0 -1 3 1 -1 9 3 2 2 -1 -7 -6 -2 6 -1 -3 5 7 -4 -5 -1 -0 0 -2 -2 -4 0
-4 -4 -2 -1 0 -1 1 -2 -1 -0 1 1 1 2 -1 -5 -1 1 1 -1 -3 -2 -3 -3 3 15 5 0 -1 1 -6 5 2 -1 2 5 20 -6 -0 2 1 4 2 2 4 4 -0
-4 -2 -4 -2 -2 -4 -3 -3 -3 -2 -2 -5 -4 -1 -1 -7 1 1 -4 -1 -1 -3 -2 18 -5 9 -4 10 -4 -6 -1 3 -5 6 7 -4 1 -2 1 1 3 1 5 -3 -2 -0 1
-2 -2 -3 -5 -1 0 0 0 0 -0 -0 -1 -2 -2 -5 3 -5 -2 -0 -1 0 4 -10 1 -4 4 7 -6 31 -2 12 -5 4 11 -1 24 6 2 -5 15 2 14 3 1 2 3 3
-4 -2 0 -1 -2 -1 -0 1 0 -1 1 0 1 1 -1 -2 -2 -7 -4 -6 -2 -0 -0 -9 -5 -4 3 -1 5 1 -0 -2 8 -4 -1 -8 -2 -8 11 4 4 6 2 4 1 -2 -7
-5 -3 -5 -2 -1 -1 -1 -1 -1 -0 -0 -1 2 1 -1 1 -1 -3 -1 -2 -3 -4 1 -11 -4 3 4 2 3 1 3 -5 -10 -7 -11 4 3 2 4 -1 -5 -4 -2 -2 -6 -10 -6
-6 -5 -5 -5 -2 -4 -2 -1 -2 -2 -1 -1 -1 -0 2 1 -0 -2 -0 -1 -1 -2 1 1 1 3 10 0 11 9 1 -10 -7 -2 10 -1 -15 -5 6 -2 10 9 3 -5 -2 -4 7
-4 -6 -5 -4 -4 -3 -3 -1 -1 -2 0 -0 -2 -0 -0 1 1 -2 -2 -2 3 -1 2 0 1 0 4 3 -2 6 -2 15 10 8 5 7 -8 8 8 10 3 3 -34 22 -1 -2 -3
-5 -6 -5 -4 -3 -4 -3 -2 -1 -3 -0 -1 -1 -1 -2 -1 2 -1 -3 5 1 -4 -1 2 1 -0 4 4 0 -1 8 10 1 1 8 4 6 4 19 5 -13 -12 24 -7 -12 -13 -6
-6 -6 -4 -3 -3 -4 -2 -2 -2 -2 -3 -0 -2 -1 -2 -1 1 0 -0 5 -2 -2 -2 -0 2 -2 -0 0 2 5 -1 9 11 11 13 5 3 6 1 -29 9 -5 -13 -11 6 -5 0
-5 -6 -4 -5 -5 -4 -2 -4 -3 -0 -4 -5 -4 -2 -0 -1 -0 3 1 2 3 -3 2 2 2 -0 -0 2 6 7 2 15 -1 6 -15 16 5 -0 7 2 6 1 0 9 -2 -4 -1
-5 -3 -5 -3 -4 -4 -2 -4 -2 -3 -1 -1 -2 -3 1 -0 0 4 -0 -1 -0 1 1 3 2 -2 -0 0 3 4 7 -1 3 -1 -1 13 -15 3 6 -9 -11 -15 5 7 5 4 -8
-2 -7 -5 -3 -2 -4 -2 -3 -2 -2 -3 -2 -3 -3 -2 2 2 -1 0 3 -0 -1 -2 4 -1 5 4 2 2 5 5 4 5 4 7 4 11 -7 1 41 10 -8 1 4 5 -9 9
-4 -4 -4 -3 -1 -2 -1 -1 -1 -3 -2 -1 -3 -0 -1 -5 1 -1 -0 2 1 0 -0 0 -4 1 1 4 -2 6 7 7 6 9 10 -3 -7 -0 13 5 3 5 12 4 -12 8 -15
-4 -4 -4 -2 -2 -3 -2 -0 -2 -3 -3 -1 -2 -4 2 -2 1 -0 -2 2 4 -0 0 -1 -2 -1 1 0 -1 -1 16 10 9 8 3 -7 -1 5 -3 4 1 2 -2 -5 4 4 3
-3 -3 -3 -2 -2 -2 -3 -2 -2 -1 -1 -3 0 1 -1 -0 -1 1 0 -1 -1 4 0 -1 1 0 -1 -3 -1 -0 8 1 9 2 -3 -4 5 2 -2 10 9 -22 -7 6 5 -1 5
-3 -3 -2 -2 -2 -2 -2 -3 -3 1 -1 -1 -2 -1 -0 -5 -3 -0 -0 -0 -1 0 1 -1 -0 3 -2 -1 -0 2 3 22 0 7 -1 -4 -3 2 2 17 -15 12 4 5 3 1 0
-1 -2 -2 -1 -1 -2 -2 -3 -3 -4 3 -3 -2 -3 -2 -0 -2 -3 -1 2 -2 -0 1 -1 -2 1 -3 -0 3 -4 3 -0 22 7 3 7 -1 -1 -3 3 -8 4 -2 1 -1 11 -1
-1 -2 -2 -2 -1 -2 -2 -2 -2 -4 -5 1 -3 -3 -0 2 -5 -1 -5 -1 -1 -0 -2 -0 -3 0 -0 -0 0 -3 1 1 4 21 5 1 2 5 1 -7 -29 21 8 8 12 -27 5
-1 -2 -2 -1 -2 -3 -1 -2 -2 -2 -6 1 -2 -0 -1 4 -5 0 -1 -1 -1 1 3 -2 -3 -0 1 1 -1 2 -1 -4 0 6 16 10 4 -3 -1 -5 7 6 3 5 -26 30 1
-1 -2 -2 -2 -1 -2 -2 -2 -2 -1 -4 -1 -3 -2 -3 2 -1 0 0 -1 1 -1 3 -2 -1 -4 2 -1 1 -2 2 -3 -2 4 5 10 10 -0 6 -6 -1 -1 6 -15 18 -8 6
-0 -1 -2 -2 -2 -1 -2 -3 -1 -2 -1 -4 -2 -3 -2 2 3 -1 1 2 2 -0 2 1 -2 -1 -0 1 -3 2 -0 -2 -0 11 -14 -0 9 10 0 -9 -1 1 -2 -2 2 -1 -5
Height
5733 5730 5726 5722 5718 5714 5711 5708 5705 5704 5702 5700 5699 5699 5699 5700 5701 5703 5705 5707 5710 5712 5714 5717 5720 5724 5727 5731 5733 5735 5739 5743 5747 5750 5754 5757 5760 5763 5766 5768 5769 5770 5774 5777 5782 5787 5790
5726 5721 5717 5712 5708 5704 5700 5697 5694 5692 5690 5689 5688 5688 5688 5689 5690 5692 5694 5697 5699 5702 5705 5708 5711 5715 5719 5723 5725 5728 5732 5736 5740 5744 5747 5751 5754 5757 5760 5764 5766 5768 5771 5774 5778 5782 5786
5717 5712 5707 5703 5698 5693 5689 5685 5682 5680 5678 5676 5676 5676 5676 5677 5678 5680 5683 5685 5689 5692 5694 5698 5702 5706 5711 5712 5717 5721 5724 5728 5732 5736 5740 5743 5747 5751 5754 5758 5761 5764 5767 5770 5774 5778 5780
5708 5702 5697 5691 5686 5681 5677 5674 5670 5667 5665 5664 5663 5663 5664 5666 5667 5669 5671 5673 5677 5681 5685 5689 5693 5697 5702 5704 5708 5711 5715 5720 5725 5728 5732 5737 5741 5744 5747 5752 5755 5759 5762 5765 5769 5772 5777
5699 5693 5687 5681 5676 5671 5666 5661 5658 5656 5654 5652 5651 5651 5652 5653 5655 5657 5659 5662 5666 5669 5674 5679 5684 5688 5692 5697 5700 5703 5707 5711 5715 5720 5725 5730 5734 5737 5741 5745 5750 5752 5755 5759 5764 5767 5771
5689 5683 5677 5671 5665 5659 5655 5651 5648 5646 5643 5641 5641 5641 5641 5642 5644 5646 5648 5651 5654 5658 5662 5668 5673 5679 5684 5689 5691 5696 5699 5704 5707 5713 5718 5723 5727 5731 5734 5739 5745 5748 5750 5754 5759 5764 5766
5679 5673 5667 5660 5654 5649 5645 5641 5638 5635 5632 5631 5630 5630 5630 5631 5633 5635 5637 5640 5644 5648 5651 5656 5663 5667 5672 5677 5682 5688 5690 5695 5699 5706 5710 5715 5720 5724 5732 5735 5738 5740 5744 5748 5752 5757 5759
5670 5664 5656 5650 5644 5638 5634 5630 5627 5624 5623 5621 5620 5619 5619 5621 5622 5624 5626 5628 5631 5636 5641 5644 5649 5656 5660 5667 5672 5677 5682 5687 5691 5698 5703 5708 5713 5719 5721 5725 5728 5731 5736 5740 5744 5748 5751
5662 5654 5647 5639 5632 5627 5622 5618 5615 5612 5610 5610 5610 5610 5609 5610 5611 5613 5614 5617 5620 5625 5631 5634 5638 5644 5648 5656 5662 5667 5673 5677 5684 5690 5695 5700 5708 5710 5713 5717 5721 5725 5730 5735 5739 5742 5744
5653 5645 5637 5630 5624 5618 5612 5607 5603 5600 5598 5596 5597 5598 5599 5599 5601 5600 5601 5605 5609 5614 5618 5625 5626 5631 5638 5644 5652 5657 5662 5668 5674 5681 5686 5690 5697 5700 5705 5710 5715 5719 5726 5729 5732 5734 5737
5645 5637 5629 5621 5614 5607 5601 5595 5590 5587 5585 5583 5582 5583 5584 5587 5587 5587 5590 5592 5596 5602 5606 5609 5615 5620 5627 5632 5642 5646 5652 5657 5665 5672 5679 5686 5691 5695 5698 5705 5711 5716 5717 5722 5725 5725 5727
5637 5629 5620 5611 5602 5595 5588 5582 5578 5574 5572 5571 5570 5570 5570 5570 5573 5574 5577 5579 5585 5590 5592 5596 5600 5606 5613 5619 5625 5634 5641 5647 5655 5661 5667 5673 5680 5685 5690 5696 5701 5706 5709 5711 5713 5716 5716
5628 5620 5610 5601 5591 5583 5576 5570 5566 5564 5562 5560 5559 5559 5559 5559 5559 5561 5564 5567 5571 5574 5580 5583 5588 5593 5600 5607 5612 5620 5629 5635 5642 5648 5655 5662 5669 5675 5682 5687 5691 5695 5700 5703 5705 5705 5710
5619 5610 5600 5590 5581 5574 5567 5562 5559 5556 5554 5552 5551 5551 5551 5551 5551 5551 5553 5557 5559 5562 5567 5571 5576 5580 5586 5594 5601 5607 5615 5624 5633 5641 5649 5656 5662 5668 5674 5678 5683 5689 5694 5696 5698 5703 5708
5611 5601 5591 5581 5573 5566 5561 5556 5553 5550 5548 5545 5543 5543 5542 5542 5543 5543 5545 5548 5549 5553 5557 5561 5565 5569 5574 5582 5589 5596 5606 5615 5623 5630 5638 5645 5652 5659 5668 5673 5677 5681 5685 5693 5694 5696 5702
5602 5593 5582 5574 5566 5560 5556 5552 5549 5545 5543 5540 5537 5536 5534 5534 5534 5535 5537 5539 5540 5543 5546 5551 5555 5560 5566 5571 5579 5584 5593 5604 5612 5621 5629 5636 5643 5651 5658 5664 5668 5673 5682 5685 5685 5689 5693
5594 5585 5576 5568 5561 5556 5552 5548 5545 5541 5537 5535 5532 5530 5529 5528 5528 5529 5530 5532 5533 5536 5539 5543 5547 5551 5557 5563 5570 5577 5584 5594 5601 5610 5618 5624 5632 5640 5645 5652 5658 5663 5666 5672 5678 5683 5687
5587 5578 5570 5562 5556 5553 5549 5545 5542 5538 5533 5530 5527 5526 5525 5524 5525 5524 5524 5526 5528 5529 5532 5536 5539 5544 5550 5557 5562 5567 5576 5582 5589 5598 5607 5615 5619 5628 5639 5645 5652 5658 5663 5670 5672 5676 5682
5581 5572 5564 5558 5553 5550 5546 5541 5538 5534 5531 5527 5524 5522 5521 5520 5520 5520 5520 5521 5522 5524 5526 5529 5532 5536 5542 5549 5555 5560 5567 5573 5579 5589 5595 5604 5608 5619 5627 5634 5641 5646 5651 5660 5665 5671 5673
5573 5566 5559 5554 5549 5546 5542 5538 5534 5531 5527 5524 5522 5519 5518 5517 5516 5515 5516 5517 5517 5519 5520 5523 5526 5530 5535 5542 5548 5554 5560 5567 5572 5579 5587 5593 5599 5610 5620 5629 5633 5636 5643 5650 5656 5661 5667
5567 5560 5554 5549 5546 5542 5538 5534 5530 5527 5523 5521 5518 5516 5514 5512 5512 5511 5511 5512 5512 5513 5514 5517 5519 5523 5528 5535 5541 5548 5554 5561 5566 5571 5577 5583 5592 5601 5611 5617 5625 5631 5639 5644 5649 5655 5659
5561 5555 5549 5544 5541 5537 5533 5530 5526 5523 5519 5517 5514 5512 5510 5509 5507 5506 5505 5506 5507 5508 5508 5510 5513 5516 5521 5527 5533 5541 5547 5552 5557 5563 5568 5575 5584 5592 5600 5608 5615 5621 5627 5635 5642 5648 5653
5555 5549 5544 5540 5535 5531 5528 5524 5521 5518 5514 5511 5508 5507 5504 5503 5501 5501 5500 5499 5500 5502 5502 5504 5506 5509 5513 5519 5526 5534 5538 5544 5549 5554 5560 5568 5576 5583 5592 5600 5605 5609 5619 5625 5632 5638 5646
5549 5542 5538 5534 5530 5525 5521 5518 5514 5512 5508 5505 5502 5499 5497 5495 5494 5493 5493 5493 5492 5493 5496 5497 5499 5502 5506 5511 5519 5525 5529 5534 5541 5549 5555 5561 5567 5575 5582 5590 5593 5604 5612 5619 5624 5632 5640
5542 5536 5531 5527 5523 5519 5514 5510 5506 5502 5500 5495 5492 5489 5488 5485 5484 5484 5483 5484 5484 5485 5487 5490 5491 5495 5499 5503 5510 5516 5521 5526 5534 5541 5547 5552 5559 5566 5572 5580 5591 5594 5603 5610 5614 5622 5631
5535 5529 5524 5520 5515 5511 5506 5501 5496 5491 5486 5483 5479 5476 5475 5474 5472 5472 5472 5473 5474 5476 5478 5481 5483 5486 5491 5496 5500 5507 5512 5518 5524 5532 5539 5545 5550 5558 5565 5572 5580 5589 5595 5603 5609 5611 5624
5528 5522 5517 5512 5508 5503 5497 5491 5485 5478 5472 5469 5464 5461 5460 5459 5457 5458 5460 5461 5462 5465 5468 5470 5474 5478 5481 5487 5492 5498 5504 5509 5515 5524 5532 5537 5543 5549 5556 5564 5572 5577 5585 5594 5600 5609 5618
5521 5515 5510 5505 5499 5493 5486 5479 5473 5467 5461 5458 5454 5452 5449 5448 5445 5446 5446 5449 5452 5453 5457 5460 5465 5468 5473 5477 5483 5489 5495 5501 5507 5512 5519 5527 5535 5543 5551 5558 5563 5569 5577 5584 5593 5598 5608
5513 5508 5502 5496 5490 5482 5475 5469 5463 5458 5453 5449 5446 5442 5440 5439 5437 5436 5438 5440 5442 5445 5448 5450 5453 5458 5462 5467 5473 5480 5487 5493 5498 5504 5509 5520 5528 5536 5543 5550 5556 5562 5570 5578 5584 5590 5596